Home   Weather   City of Mount Pleasant   Past weeks
Flag for USA

Past Weather in City of Mount Pleasant, Michigan, USA — Yesterday and Last 2 Weeks

Now
73 °F

Clear.


Feels Like: 71 °F
Forecast: 86 / 74 °F
Wind: No wind

Location: Roben-Hood Airport

Current Time: Jul 19, 2019 at 4:44:27 am

Latest Report: Jul 19, 2019 at 3:59 am


Visibility: 10 mi

Pressure: 29.77 "Hg

Humidity: 93%

Dew Point: 71 °F

Location of City of Mount PleasantLocation

Past Weather in City of Mount Pleasant — Graph

°F

City of Mount Pleasant Temperature Yesterday

Maximum temperature yesterday: 86 °F (at 5:16 pm)
Minimum temperature yesterday: 65 °F (at 5:58 am)
Average temperature yesterday: 75 °F

High & Low Weather Summary for the Past Weeks

 TemperatureHumidityPressure
High89 °F (Jul 5, 3:16 pm)97% (Jul 5, 7:40 am)30.19 "Hg (Jul 5, 7:40 am)
Low51 °F (Jul 14, 5:56 am)31% (Jul 14, 4:39 pm)29.77 "Hg (Jul 18, 2:36 pm)
Average73 °F71%29.98 "Hg
* Reported Jul 4 3:15 am — Jul 19 3:36 am, City of Mount Pleasant. Weather by CustomWeather, © 2019

Note: Actual official high and low records may vary slightly from our data, if they occured in-between our weather recording intervals... More about our weather records

Advertising

City of Mount Pleasant Weather History for the Previous 24 Hours

Scroll right to see more
 ConditionsComfort  
Time TempWeatherWind HumidityBarometerVisibility
3:36 am
Fri, Jul 19
73 °FPassing clouds.No wind93%29.78 "Hg10 mi
2:56 am73 °FPassing clouds.5 mph93%29.78 "Hg10 mi
2:38 am74 °FPartly cloudy.5 mph92%29.80 "Hg10 mi
2:15 am74 °FMostly cloudy.No wind93%29.80 "Hg10 mi
1:55 am74 °FMostly cloudy.3 mph92%29.80 "Hg10 mi
1:36 am73 °FPassing clouds.5 mph93%29.80 "Hg10 mi
12:59 am73 °FPassing clouds.5 mph91%29.80 "Hg10 mi
12:36 am73 °FPassing clouds.6 mph93%29.79 "Hg10 mi
12:15 am73 °FPassing clouds.6 mph91%29.80 "Hg10 mi
11:56 pm
Thu, Jul 18
73 °FClear.9 mph91%29.80 "Hg10 mi
11:38 pm73 °FClear.6 mph91%29.80 "Hg10 mi
11:15 pm74 °FClear.6 mph89%29.80 "Hg10 mi
10:56 pm74 °FClear.5 mph88%29.80 "Hg10 mi
10:38 pm74 °FPassing clouds.3 mph86%29.80 "Hg10 mi
10:15 pm74 °FClear.3 mph85%29.80 "Hg10 mi
9:55 pm75 °FClear.3 mph83%29.80 "Hg10 mi
9:36 pm76 °FClear.No wind80%29.79 "Hg10 mi
9:17 pm76 °FSunny.3 mph78%29.80 "Hg10 mi
8:59 pm77 °FSunny.6 mph76%29.79 "Hg10 mi
8:36 pm78 °FSunny.7 mph71%29.79 "Hg10 mi
8:15 pm80 °FSunny.9 mph67%29.78 "Hg10 mi
7:56 pm81 °FSunny.5 mph65%29.78 "Hg10 mi
7:38 pm82 °FSunny.10 mph61%29.78 "Hg10 mi
7:15 pm83 °FSunny.12 mph57%29.78 "Hg10 mi
6:55 pm83 °FSunny.9 mph56%29.78 "Hg10 mi
6:36 pm84 °FSunny.16 mph52%29.79 "Hg10 mi
6:18 pm85 °FSunny.17 mph50%29.78 "Hg10 mi
5:56 pm85 °FSunny.7 mph51%29.78 "Hg10 mi
5:35 pm85 °FSunny.6 mph53%29.77 "Hg10 mi
5:16 pm86 °FSunny.5 mph49%29.77 "Hg10 mi
4:58 pm84 °FSunny.3 mph52%29.77 "Hg10 mi
4:35 pm85 °FSunny.6 mph51%29.77 "Hg10 mi
4:16 pm85 °FSunny.13 mph52%29.79 "Hg10 mi
3:56 pm84 °FSunny.10 mph52%29.78 "Hg10 mi
3:37 pm84 °FSunny.3 mph54%29.77 "Hg10 mi
3:15 pm82 °FSunny.10 mph57%29.79 "Hg10 mi
2:56 pm80 °FSunny.8 mph60%29.79 "Hg10 mi
2:36 pm79 °FSunny.No wind63%29.77 "Hg10 mi
1:55 pm78 °FSunny.No wind61%29.79 "Hg10 mi
1:36 pm77 °FSunny.No wind69%29.79 "Hg10 mi
12:59 pm77 °FSunny.8 mph71%29.80 "Hg10 mi
12:35 pm76 °FScattered clouds.5 mph84%29.82 "Hg10 mi
12:15 pm75 °FScattered clouds.7 mph87%29.82 "Hg10 mi
11:56 am75 °FBroken clouds.18 mph87%29.80 "Hg10 mi
11:38 am76 °FLight rain. Cloudy.9 mph85%29.87 "Hg10 mi
11:15 am77 °FOvercast.8 mph83%29.89 "Hg10 mi
10:55 am77 °FMostly cloudy.13 mph80%29.90 "Hg10 mi
10:36 am77 °FCloudy.6 mph81%29.91 "Hg10 mi
10:17 am76 °FBroken clouds.7 mph82%29.90 "Hg10 mi
10:00 am76 °FScattered clouds.13 mph82%29.89 "Hg10 mi
9:36 am75 °FScattered clouds.7 mph85%29.90 "Hg10 mi
9:16 am74 °FScattered clouds.5 mph87%29.91 "Hg10 mi
8:58 am73 °FSunny.No wind88%29.90 "Hg10 mi
8:40 am72 °FSunny.5 mph89%29.90 "Hg10 mi
7:56 am71 °FSunny.12 mph90%29.90 "Hg10 mi
7:37 am69 °FSunny.9 mph91%29.90 "Hg10 mi
7:19 am68 °FSunny.6 mph92%29.90 "Hg10 mi
6:56 am65 °FSunny.No wind93%29.91 "Hg10 mi
6:35 am65 °FSunny.5 mph93%29.90 "Hg10 mi
6:16 am65 °FSunny.No wind93%29.91 "Hg10 mi
5:58 am65 °FClear.5 mph93%29.91 "Hg10 mi
5:35 am65 °FClear.No wind92%29.91 "Hg10 mi
5:16 am65 °FClear.No wind92%29.90 "Hg10 mi
4:38 am66 °FClear.No wind91%29.91 "Hg10 mi
4:15 am66 °FClear.7 mph89%29.91 "Hg10 mi
Weather by CustomWeather, © 2019

See weather overview